[[{"header":{"parameterUnit":"m.s-1","parameterCategory":1,"la1":30.2991,"la2":30.254,"lo1":-89.0895,"lo2":-89.0444,"dy":0.0017,"dx":0.0017,"nx":28,"ny":28,"refTime":"2024-08-18T21:00:00:Z","depth":0,"parameterNumber":2,"parameterNumberName":"U-component_of_WINDS"},"data":[0,0,0,0,0,0,0,0,0,0,0,0,0,0,0,0,0,0,0,0,0,0,0,0,0,0,0,0,0,0,0,0,0,0,0,0,0,0,0,0,0,0,0,0,0,0,0,0,0,0,0,0,0,0,0,0,0,0,1.1577,1.1577,0,1.1576,1.1576,1.1576,1.1619,1.162,1.1621,1.1622,1.1622,1.1621,1.162,0,0,0,0,0,0,0,0,0,0,0,0,0,1.1614,1.1614,1.1577,1.1577,1.1577,1.1576,1.1576,1.1576,1.1619,1.162,1.1622,1.1623,1.1622,1.1621,1.162,0,0,0,0,0,0,0,0,0,0,0,0,0,1.1604,1.1613,1.1577,1.1598,1.16,1.1576,1.1576,1.1576,1.1619,1.162,1.1622,1.1624,1.1623,1.1621,1.162,1.1576,0,0,1.1615,1.1614,0,0,0,0,0,0,0,0,1.1605,1.1603,1.1595,1.1596,1.1598,1.16,1.159,1.1576,1.1618,1.1611,1.1622,1.1624,1.1613,1.1613,1.1609,1.1576,1.1576,1.1615,1.1614,1.1613,1.1613,0,0,0,0,0,0,0,1.1606,1.1603,1.1577,1.1595,1.1597,1.1608,1.1608,1.1587,1.1603,1.1612,1.1615,1.1615,1.1615,1.161,1.1609,1.1576,1.1615,1.1613,1.1612,1.1612,1.1508,1.1506,0,0,0,0,0,0,1.1603,1.1604,1.1577,1.1577,1.1606,1.1605,1.1606,1.1597,1.1603,1.1606,1.1613,1.1617,1.1612,1.1611,1.1609,1.1558,1.1613,1.1612,1.1611,1.151,1.1507,1.1505,0,0,0,0,0,0,1.1604,1.1601,1.1577,1.1591,1.1589,1.1603,1.1593,1.1597,1.1592,1.1604,1.1607,1.1606,1.1613,1.1611,1.1584,1.1559,1.1611,1.161,1.1512,1.1509,1.1506,1.1455,0,0,0,0,0,0,1.1605,1.1601,1.1584,1.159,1.1588,1.1551,1.1592,1.1595,1.1589,1.1594,1.1598,1.16,1.1615,1.1586,1.1582,1.1557,1.1608,1.1514,1.151,1.1507,1.1459,1.1451,1.1444,0,0,0,0,0,1.1606,1.157,1.1583,1.1579,1.1567,1.1549,1.1548,1.1565,1.1587,1.1571,1.1578,1.16,1.1562,1.1583,1.1579,1.1553,1.1516,1.1511,1.1507,1.1463,1.1453,1.1444,0,0,0,0,0,0,1.156,1.1571,1.1586,1.155,1.1548,1.1557,1.1536,1.1554,1.1547,1.1551,1.1573,1.1574,1.1542,1.1546,1.1568,1.1511,1.1543,1.1538,1.151,1.1501,1.1493,1.1492,1.1607,0,0,0,0,0,1.1546,1.153,1.1541,1.1508,1.1507,1.1522,1.1514,1.1528,1.1527,1.1527,1.1533,1.1531,1.1519,1.151,1.15,1.1461,1.1462,1.1441,1.1433,1.1427,1.1422,1.1401,1.1391,1.1492,1.1492,1.1492,0,0,1.1516,1.152,1.1509,1.1499,1.1499,1.1483,1.1521,1.1502,1.1489,1.1524,1.1498,1.1502,1.1502,1.1468,1.1454,1.147,1.1395,1.1422,1.1417,1.1415,1.1395,1.1386,1.1377,1.1489,1.149,1.149,0,0,1.1452,1.1454,1.1427,1.1427,1.1427,1.1437,1.1431,1.1436,1.144,1.1415,1.144,1.1427,1.1405,1.1404,1.1401,1.1338,1.1357,1.1334,1.1294,1.1273,1.1265,1.1258,1.1234,1.1225,1.1329,1.1329,1.1329,0,1.1415,1.1391,1.1411,1.139,1.1385,1.1416,1.1388,1.1387,1.1384,1.138,1.1398,1.1372,1.1374,1.134,1.1325,1.1321,1.1314,1.1332,1.1264,1.1257,1.1251,1.1229,1.122,1.1326,1.1326,1.1327,1.1327,0,1.1344,1.1327,1.1305,1.1301,1.1294,1.127,1.1286,1.1277,1.1291,1.13,1.1273,1.1277,1.1268,1.1261,1.1275,1.1229,1.1239,1.126,1.1292,1.1238,1.1218,1.1209,1.1322,1.1323,1.1324,1.1324,0,0,1.125,1.1258,1.1249,1.1248,1.1251,1.1238,1.1216,1.1206,1.1197,1.1194,1.1176,1.1157,1.1177,1.1173,1.1188,1.117,1.1118,1.1194,1.1194,1.1178,1.1066,1.1049,1.1038,1.1132,1.113,1.1129,1.1066,0,1.1188,1.1149,1.1167,1.1126,1.1111,1.114,1.1121,1.1121,1.1128,1.1116,1.1125,1.1111,1.1139,1.1136,1.112,1.1128,1.1096,1.1133,1.1114,1.1113,1.1111,1.1028,1.1009,1.0949,1.1058,1.1057,1.1056,0,1.1109,1.1103,1.106,1.1066,1.106,1.1042,1.1035,1.1023,1.1024,1.1031,1.1026,1.1045,1.1023,1.1057,1.1027,1.1052,1.1045,1.1048,1.1046,1.1044,1.1079,1.1021,1.093,1.092,1.1043,1.1044,1.1045,0,1.1043,1.1024,1.0996,1.0994,1.1,1.0987,1.0989,1.0991,1.0984,1.0978,1.0974,1.0966,1.0961,1.0954,1.0971,1.0993,1.0938,1.0973,1.0942,1.0942,1.0928,1.0928,1.0833,1.0927,1.0927,1.0927,1.0927,0,1.097,1.0943,1.0966,1.0949,1.0919,1.094,1.091,1.0916,1.0918,1.0902,1.0928,1.0913,1.0936,1.0923,1.0935,1.0908,1.0906,1.0911,1.0914,1.0907,1.0906,1.0902,1.0906,1.0924,1.0925,1.0925,1.0926,0,1.0891,1.0905,1.0877,1.0885,1.0887,1.0864,1.0871,1.0856,1.0865,1.0845,1.0842,1.0857,1.0843,1.0859,1.0846,1.0855,1.0817,1.0828,1.0817,1.0819,1.0787,1.0789,1.0684,1.0671,1.0775,1.0774,1.0773,0,1.0842,1.0822,1.0828,1.0819,1.082,1.0805,1.0799,1.0819,1.0811,1.081,1.0794,1.0783,1.0774,1.075,1.076,1.0751,1.076,1.0724,1.0759,1.0752,1.0758,1.0758,1.0755,1.0716,1.0715,1.0714,1.0713,0,1.0755,1.0763,1.0752,1.0744,1.0735,1.073,1.0726,1.0718,1.0739,1.0729,1.0715,1.0708,1.0695,1.0683,1.0676,1.0678,1.0698,1.0702,1.0694,1.0686,1.068,1.0681,1.0795,1.0704,1.0705,1.0706,1.0706,1.0706,1.0688,1.0671,1.0673,1.066,1.066,1.0656,1.0641,1.0649,1.0638,1.0628,1.0642,1.0624,1.0625,1.0618,1.0618,1.0604,1.062,1.0609,1.0606,1.0602,1.0597,1.0684,1.0603,1.0604,1.0604,1.0604,1.0604,0,1.0601,1.0603,1.0591,1.0585,1.0575,1.0596,1.0594,1.0583,1.0567,1.0567,1.0558,1.0541,1.053,1.0539,1.0529,1.0516,1.0525,1.0513,1.0513,1.0513,1.0584,1.0591,1.0506,1.0506,1.0506,1.0506,1.0506,1.0506,1.0554,1.0526,1.0534,1.0506,1.051,1.0492,1.0488,1.0485,1.0485,1.0465,1.0455,1.0461,1.0465,1.0455,1.0445,1.0449,1.0443,1.0427,1.0433,1.0499,1.0508,1.0517,1.0524,1.0426,1.0426,1.0363,1.0362,1.0362]},{"header":{"parameterUnit":"m.s-1","parameterCategory":1,"la1":30.2991,"la2":30.254,"lo1":-89.0895,"lo2":-89.0444,"dy":0.0017,"dx":0.0017,"nx":28,"ny":28,"refTime":"2024-08-18T21:00:00:Z","depth":0,"parameterNumber":3,"parameterNumberName":"V-component_of_WINDS"},"data":[0,0,0,0,0,0,0,0,0,0,0,0,0,0,0,0,0,0,0,0,0,0,0,0,0,0,0,0,0,0,0,0,0,0,0,0,0,0,0,0,0,0,0,0,0,0,0,0,0,0,0,0,0,0,0,0,0,0,-3.5892,-3.5891,0,-3.5803,-3.5802,-3.58,-3.5911,-3.5915,-3.5919,-3.5923,-3.582,-3.5813,-3.5807,0,0,0,0,0,0,0,0,0,0,0,0,0,-3.6149,-3.6144,-3.5892,-3.5891,-3.589,-3.5803,-3.5801,-3.58,-3.591,-3.5915,-3.592,-3.5925,-3.5822,-3.5814,-3.5806,0,0,0,0,0,0,0,0,0,0,0,0,0,-3.6046,-3.6142,-3.5893,-3.5935,-3.5938,-3.5803,-3.5801,-3.58,-3.5909,-3.5915,-3.5921,-3.5927,-3.5825,-3.5815,-3.5805,-3.5621,0,0,-3.5775,-3.5771,0,0,0,0,0,0,0,0,-3.6051,-3.6036,-3.593,-3.5932,-3.5935,-3.5875,-3.5854,-3.574,-3.5908,-3.592,-3.5923,-3.593,-3.5832,-3.5822,-3.5791,-3.5616,-3.5612,-3.5774,-3.5768,-3.5764,-3.5761,0,0,0,0,0,0,0,-3.6059,-3.6041,-3.5857,-3.5928,-3.5931,-3.5955,-3.5947,-3.5833,-3.5842,-3.5919,-3.5927,-3.5915,-3.5835,-3.5801,-3.579,-3.5611,-3.5775,-3.5766,-3.576,-3.5756,-3.5277,-3.527,0,0,0,0,0,0,-3.6062,-3.6046,-3.586,-3.5854,-3.601,-3.5945,-3.5937,-3.5887,-3.5844,-3.5843,-3.591,-3.5921,-3.5815,-3.5801,-3.5787,-3.5565,-3.5764,-3.5755,-3.5749,-3.5284,-3.5275,-3.5268,0,0,0,0,0,0,-3.6067,-3.6045,-3.5863,-3.5952,-3.5931,-3.5934,-3.5878,-3.5882,-3.5849,-3.5837,-3.5838,-3.5874,-3.5819,-3.58,-3.5662,-3.5563,-3.575,-3.5742,-3.5292,-3.5281,-3.5272,-3.5123,0,0,0,0,0,0,-3.6074,-3.6046,-3.5978,-3.595,-3.5926,-3.5742,-3.5872,-3.5876,-3.5833,-3.5846,-3.5804,-3.5803,-3.5822,-3.5676,-3.5652,-3.5553,-3.5734,-3.53,-3.5287,-3.5275,-3.5136,-3.5109,-3.5085,0,0,0,0,0,-3.6083,-3.5938,-3.5974,-3.5951,-3.5842,-3.5736,-3.5722,-3.5751,-3.5824,-3.5754,-3.5747,-3.5804,-3.5579,-3.5661,-3.5635,-3.5531,-3.5307,-3.5291,-3.5276,-3.5148,-3.5114,-3.5086,0,0,0,0,0,0,-3.5951,-3.5935,-3.5975,-3.5817,-3.5778,-3.5755,-3.5668,-3.5715,-3.565,-3.5665,-3.57,-3.5689,-3.5541,-3.5523,-3.5614,-3.535,-3.5454,-3.5433,-3.5366,-3.5334,-3.5309,-3.5314,-3.5726,0,0,0,0,0,-3.5904,-3.5823,-3.5813,-3.5674,-3.5653,-3.5664,-3.5619,-3.5645,-3.5604,-3.5586,-3.5569,-3.5524,-3.5443,-3.5388,-3.5314,-3.5136,-3.5126,-3.5053,-3.5027,-3.5006,-3.4985,-3.4886,-3.4852,-3.5218,-3.5218,-3.5218,0,0,-3.5805,-3.5787,-3.5732,-3.5647,-3.562,-3.5531,-3.5649,-3.5551,-3.5484,-3.557,-3.5438,-3.5424,-3.5375,-3.5216,-3.5145,-3.5196,-3.4883,-3.4986,-3.497,-3.496,-3.4867,-3.4832,-3.4802,-3.5207,-3.5209,-3.5211,0,0,-3.5578,-3.5558,-3.544,-3.541,-3.5368,-3.5377,-3.5348,-3.5319,-3.5313,-3.5183,-3.5245,-3.5165,-3.5026,-3.4988,-3.4951,-3.4711,-3.4759,-3.4686,-3.4549,-3.4453,-3.4424,-3.4398,-3.4308,-3.4276,-3.4666,-3.4666,-3.4666,0,-3.5458,-3.5331,-3.5372,-3.5269,-3.5228,-3.5307,-3.5184,-3.5153,-3.5086,-3.5054,-3.5115,-3.4941,-3.4915,-3.4746,-3.4687,-3.4656,-3.4621,-3.4688,-3.4426,-3.44,-3.4377,-3.4291,-3.4258,-3.4657,-3.4658,-3.4659,-3.466,0,-3.5185,-3.5095,-3.5004,-3.4941,-3.4891,-3.4778,-3.4798,-3.4741,-3.4772,-3.4773,-3.4636,-3.4608,-3.4527,-3.4491,-3.4518,-3.4324,-3.4357,-3.4421,-3.4526,-3.4332,-3.4252,-3.422,-3.4644,-3.4647,-3.465,-3.4652,0,0,-3.4867,-3.4831,-3.4796,-3.4768,-3.4728,-3.4658,-3.4548,-3.4473,-3.4422,-3.4374,-3.428,-3.4161,-3.422,-3.4177,-3.4202,-3.4118,-3.3924,-3.4192,-3.4191,-3.4139,-3.3703,-3.3651,-3.3613,-3.3959,-3.3953,-3.3948,-3.3706,0,-3.4637,-3.4451,-3.4484,-3.43,-3.4216,-3.4291,-3.4195,-3.4157,-3.4156,-3.4081,-3.4079,-3.3992,-3.4079,-3.4053,-3.3974,-3.3965,-3.3836,-3.3984,-3.3865,-3.3861,-3.387,-3.3572,-3.3517,-3.3289,-3.3675,-3.367,-3.3666,0,-3.4343,-3.4287,-3.4096,-3.4069,-3.4034,-3.3948,-3.388,-3.381,-3.3769,-3.3773,-3.3726,-3.3767,-3.3653,-3.3764,-3.3606,-3.3705,-3.3659,-3.3648,-3.364,-3.3625,-3.3748,-3.3544,-3.3218,-3.3182,-3.3618,-3.3622,-3.3625,0,-3.4124,-3.4002,-3.3872,-3.3846,-3.3812,-3.3748,-3.373,-3.3696,-3.3648,-3.3589,-3.3557,-3.3485,-3.3443,-3.3384,-3.3402,-3.3483,-3.3238,-3.3352,-3.3234,-3.3232,-3.3174,-3.3176,-3.283,-3.3153,-3.3154,-3.3155,-3.3155,0,-3.386,-3.3739,-3.3773,-3.3691,-3.3557,-3.3596,-3.3461,-3.3451,-3.342,-3.3335,-3.3396,-3.3315,-3.3347,-3.3266,-3.328,-3.3143,-3.3125,-3.3122,-3.3126,-3.3113,-3.3113,-3.3079,-3.3093,-3.3146,-3.3148,-3.3149,-3.3151,0,-3.3591,-3.361,-3.3472,-3.3452,-3.3445,-3.3345,-3.3327,-3.3249,-3.3254,-3.3146,-3.3122,-3.3127,-3.3036,-3.305,-3.2947,-3.2957,-3.2785,-3.2811,-3.2799,-3.2803,-3.2682,-3.2691,-3.2298,-3.2247,-3.2608,-3.2605,-3.2602,0,-3.3419,-3.3328,-3.33,-3.3249,-3.3227,-3.3145,-3.3098,-3.3133,-3.3079,-3.3026,-3.2953,-3.2868,-3.2801,-3.265,-3.2642,-3.2563,-3.2584,-3.2452,-3.2572,-3.2562,-3.2576,-3.2578,-3.2567,-3.2426,-3.2422,-3.2419,-3.2416,0,-3.3109,-3.3123,-3.3054,-3.2987,-3.293,-3.2878,-3.2832,-3.2786,-3.2817,-3.2754,-3.2663,-3.2611,-3.2508,-3.242,-3.2347,-3.2325,-3.2372,-3.238,-3.2347,-3.233,-3.2325,-3.2321,-3.2728,-3.2387,-3.239,-3.2392,-3.2393,-3.2395,-3.2879,-3.2801,-3.2769,-3.2689,-3.2659,-3.2615,-3.254,-3.2537,-3.2462,-3.2383,-3.2408,-3.2303,-3.2262,-3.2169,-3.2139,-3.2055,-3.2103,-3.2057,-3.2044,-3.2031,-3.2014,-3.2344,-3.2042,-3.2043,-3.2044,-3.2045,-3.2045,0,-3.2568,-3.2552,-3.2479,-3.2414,-3.235,-3.2408,-3.236,-3.2301,-3.2209,-3.2169,-3.2103,-3.1997,-3.1913,-3.1899,-3.1818,-3.1753,-3.1773,-3.173,-3.1732,-3.1725,-3.1978,-3.2012,-3.1715,-3.1715,-3.1715,-3.1715,-3.1716,-3.1716,-3.2398,-3.2267,-3.2277,-3.2131,-3.2115,-3.2015,-3.1982,-3.194,-3.1909,-3.1788,-3.172,-3.1714,-3.1683,-3.1601,-3.1524,-3.1523,-3.1487,-3.1434,-3.144,-3.1675,-3.1708,-3.1739,-3.1771,-3.1428,-3.1427,-3.1193,-3.1191,-3.1189]}]]